TimeEST,TemperatureF,Dew PointF,Humidity,Sea Level PressureIn,VisibilityMPH,Wind Direction,Wind SpeedMPH,Gust SpeedMPH,PrecipitationIn,Events,Conditions,WindDirDegrees,DateUTC
12:15 AM,46.4,44.6,93,30.08,10.0,NE,10.4,-,0.05,Rain,Rain,40,2013-02-08 05:15:00
12:35 AM,44.6,44.6,100,30.06,10.0,NE,13.8,-,0.07,Rain,Light Rain,40,2013-02-08 05:35:00
12:55 AM,44.6,44.6,100,30.05,10.0,NE,12.7,-,0.01,Rain,Light Rain,50,2013-02-08 05:55:00
1:15 AM,44.6,44.6,100,30.04,10.0,NE,11.5,-,0.02,Rain,Rain,50,2013-02-08 06:15:00
1:35 AM,44.6,44.6,100,30.01,10.0,NE,13.8,17.3,0.06,Rain,Rain,40,2013-02-08 06:35:00
1:55 AM,44.6,44.6,100,29.99,10.0,NE,13.8,21.9,0.02,Rain,Rain,40,2013-02-08 06:55:00
2:15 AM,44.6,44.6,100,29.96,10.0,NE,16.1,21.9,0.06,Rain,Light Rain,40,2013-02-08 07:15:00
2:35 AM,44.6,42.8,93,29.93,10.0,NNE,15.0,23.0,0.09,Rain,Light Rain,30,2013-02-08 07:35:00
2:55 AM,44.6,44.6,100,29.91,10.0,NNE,15.0,21.9,0.01,Rain,Rain,30,2013-02-08 07:55:00
3:15 AM,44.6,42.8,93,29.89,7.0,NNE,17.3,23.0,0.05,Rain,Rain,30,2013-02-08 08:15:00
3:35 AM,44.6,44.6,100,29.88,7.0,NNE,15.0,23.0,0.11,Rain,Rain,30,2013-02-08 08:35:00
3:55 AM,44.6,44.6,100,29.86,10.0,NNE,16.1,23.0,0.04,Rain,Rain,30,2013-02-08 08:55:00
4:35 AM,44.6,44.6,100,29.80,10.0,NNE,17.3,27.6,0.16,Rain,Rain,30,2013-02-08 09:35:00
4:55 AM,44.6,44.6,100,29.78,10.0,NNE,15.0,23.0,0.03,Rain,Rain,20,2013-02-08 09:55:00
5:15 AM,46.4,44.6,93,29.75,10.0,NNE,17.3,28.8,0.08,Rain,Light Rain,20,2013-02-08 10:15:00
5:35 AM,46.4,44.6,93,29.73,10.0,North,15.0,28.8,0.14,Rain,Rain,10,2013-02-08 10:35:00
5:55 AM,46.4,46.4,100,29.72,10.0,NNE,20.7,35.7,0.05,Rain,Rain,20,2013-02-08 10:55:00
6:15 AM,46.4,46.4,100,29.70,10.0,North,18.4,36.8,0.11,Rain,Rain,10,2013-02-08 11:15:00
6:35 AM,46.4,46.4,100,29.68,7.0,North,18.4,26.5,0.19,Rain,Heavy Rain,10,2013-02-08 11:35:00
6:55 AM,46.4,46.4,100,29.67,3.0,North,18.4,34.5,0.05,,Overcast,360,2013-02-08 11:55:00
7:15 AM,46.4,44.6,93,29.65,5.0,North,19.6,32.2,0.17,Rain,Heavy Rain,360,2013-02-08 12:15:00
7:35 AM,44.6,44.6,100,29.65,4.0,North,18.4,32.2,0.27,Rain,Rain,360,2013-02-08 12:35:00
7:55 AM,44.6,44.6,100,29.65,5.0,North,17.3,27.6,0.05,Rain,Heavy Rain,350,2013-02-08 12:55:00
8:15 AM,46.4,44.6,93,29.66,5.0,North,17.3,29.9,0.10,Rain,Rain,350,2013-02-08 13:15:00
8:35 AM,44.6,44.6,100,29.65,5.0,North,17.3,31.1,0.15,Rain,Rain,350,2013-02-08 13:35:00
8:55 AM,44.6,44.6,100,29.65,7.0,North,18.4,25.3,0.01,Rain,Rain,350,2013-02-08 13:55:00
9:15 AM,46.4,44.6,93,29.65,7.0,NNW,13.8,26.5,0.04,Rain,Rain,340,2013-02-08 14:15:00
9:35 AM,44.6,44.6,100,29.66,2.5,NNW,18.4,25.3,0.11,Rain,Rain,330,2013-02-08 14:35:00
9:55 AM,46.4,46.4,100,29.66,10.0,NNW,18.4,31.1,0.02,Rain,Rain,330,2013-02-08 14:55:00
10:15 AM,46.4,46.4,100,29.67,10.0,NW,17.3,26.5,0.04,Rain,Light Rain,320,2013-02-08 15:15:00
10:35 AM,46.4,46.4,100,29.67,10.0,NNW,15.0,24.2,0.04,Rain,Light Rain,330,2013-02-08 15:35:00
10:55 AM,46.4,46.4,100,29.67,10.0,NW,15.0,25.3,N/A,Rain,Light Rain,310,2013-02-08 15:55:00
11:15 AM,46.4,46.4,100,29.67,10.0,NW,19.6,26.5,N/A,,Overcast,310,2013-02-08 16:15:00
11:35 AM,44.6,44.6,100,29.68,10.0,WNW,17.3,27.6,N/A,,Overcast,300,2013-02-08 16:35:00
11:55 AM,44.6,42.8,93,29.67,10.0,NW,16.1,25.3,N/A,,Overcast,320,2013-02-08 16:55:00
12:15 PM,44.6,44.6,100,29.68,10.0,WNW,18.4,25.3,N/A,,Overcast,300,2013-02-08 17:15:00
12:35 PM,44.6,44.6,100,29.69,10.0,WNW,16.1,23.0,N/A,,Overcast,300,2013-02-08 17:35:00
12:55 PM,44.6,44.6,100,29.70,10.0,WNW,17.3,24.2,N/A,,Overcast,290,2013-02-08 17:55:00
1:15 PM,44.6,44.6,100,29.70,10.0,WNW,13.8,26.5,N/A,,Overcast,300,2013-02-08 18:15:00
1:35 PM,46.4,46.4,100,29.69,10.0,NW,13.8,21.9,N/A,,Overcast,310,2013-02-08 18:35:00
1:55 PM,51.8,44.6,76,29.69,10.0,NW,13.8,25.3,N/A,,Scattered Clouds,310,2013-02-08 18:55:00
2:15 PM,53.6,46.4,77,29.69,10.0,West,15.0,19.6,N/A,,Scattered Clouds,280,2013-02-08 19:15:00
2:35 PM,53.6,44.6,72,29.70,10.0,West,17.3,23.0,N/A,,Overcast,280,2013-02-08 19:35:00
2:55 PM,53.6,44.6,72,29.70,10.0,WNW,12.7,26.5,N/A,,Mostly Cloudy,290,2013-02-08 19:55:00
3:15 PM,53.6,44.6,72,29.70,10.0,NW,15.0,-,N/A,,Overcast,310,2013-02-08 20:15:00
3:35 PM,53.6,44.6,72,29.71,10.0,West,12.7,24.2,N/A,,Mostly Cloudy,280,2013-02-08 20:35:00
3:55 PM,53.6,44.6,72,29.71,10.0,West,11.5,15.0,N/A,,Mostly Cloudy,280,2013-02-08 20:55:00
4:15 PM,53.6,44.6,72,29.71,10.0,West,18.4,23.0,N/A,,Scattered Clouds,270,2013-02-08 21:15:00
4:35 PM,51.8,42.8,71,29.73,10.0,West,16.1,-,N/A,,Scattered Clouds,280,2013-02-08 21:35:00
4:55 PM,50.0,42.8,76,29.75,10.0,West,17.3,27.6,N/A,,Mostly Cloudy,270,2013-02-08 21:55:00
5:15 PM,50.0,42.8,76,29.76,10.0,West,16.1,23.0,N/A,,Overcast,270,2013-02-08 22:15:00
5:35 PM,48.2,42.8,82,29.77,10.0,West,12.7,18.4,N/A,,Mostly Cloudy,270,2013-02-08 22:35:00
5:55 PM,48.2,42.8,82,29.77,10.0,West,10.4,17.3,N/A,,Mostly Cloudy,270,2013-02-08 22:55:00
6:15 PM,48.2,41.0,76,29.78,10.0,West,8.1,-,N/A,,Mostly Cloudy,270,2013-02-08 23:15:00
6:35 PM,46.4,41.0,81,29.79,10.0,West,8.1,-,N/A,,Clear,270,2013-02-08 23:35:00
6:55 PM,46.4,41.0,81,29.80,10.0,West,6.9,-,N/A,,Clear,270,2013-02-08 23:55:00
7:15 PM,44.6,41.0,87,29.80,10.0,Calm,Calm,-,N/A,,Scattered Clouds,0,2013-02-09 00:15:00
7:35 PM,44.6,42.8,93,29.81,10.0,Calm,Calm,-,N/A,,Mostly Cloudy,0,2013-02-09 00:35:00
7:55 PM,46.4,42.8,87,29.82,10.0,Calm,Calm,-,N/A,,Overcast,0,2013-02-09 00:55:00
8:15 PM,46.4,42.8,87,29.82,10.0,Calm,Calm,-,N/A,,Overcast,0,2013-02-09 01:15:00
8:35 PM,46.4,42.8,87,29.83,10.0,Calm,Calm,-,N/A,,Overcast,0,2013-02-09 01:35:00
8:55 PM,46.4,42.8,87,29.85,10.0,Calm,Calm,-,N/A,,Overcast,0,2013-02-09 01:55:00
9:15 PM,46.4,42.8,87,29.86,10.0,Calm,Calm,-,N/A,,Overcast,0,2013-02-09 02:15:00
9:35 PM,46.4,42.8,87,29.86,10.0,West,5.8,-,N/A,,Mostly Cloudy,280,2013-02-09 02:35:00
9:55 PM,46.4,41.0,81,29.88,10.0,WNW,8.1,-,N/A,,Scattered Clouds,290,2013-02-09 02:55:00
10:15 PM,46.4,37.4,71,29.88,10.0,WNW,11.5,16.1,N/A,,Scattered Clouds,300,2013-02-09 03:15:00
10:35 PM,46.4,35.6,66,29.89,10.0,West,11.5,18.4,N/A,,Clear,280,2013-02-09 03:35:00
10:55 PM,44.6,33.8,66,29.90,10.0,West,12.7,19.6,N/A,,Clear,280,2013-02-09 03:55:00
11:15 PM,44.6,32.0,61,29.90,10.0,West,11.5,20.7,N/A,,Clear,280,2013-02-09 04:15:00
11:35 PM,42.8,33.8,70,29.91,10.0,West,8.1,-,N/A,,Scattered Clouds,280,2013-02-09 04:35:00
11:55 PM,42.8,32.0,66,29.92,10.0,West,9.2,-,N/A,,Clear,270,2013-02-09 04:55:00